FOX-1D (AO-92) (43137 NORAD) Tracking and Keplerian Element Data

This shows tracking and keplerian element data for the satellite.

Feedback or suggestion? Click here.




ElementValue
Catalog43137
NameFOX-1D (AO-92)
Epoch Orbit33503
Epoch Day13.17101577
Epoch Year2024
RAAN103.6847
Inclination97.2989
Eccentricity0.0002091
Argument of Perigee328.4306
Mean Anonmoly31.6841
Mean Motion15.89090479
Decay Rate0.00432274
L11 43137U 18004AC 24013.17101577 .00432274 00000+0 14500-2 0 9993
L22 43137 97.2989 103.6847 0002091 328.4306 31.6841 15.89090479335030



Live tracking and technical data element details for FOX-1D (AO-92) (NORAD 43137). FOX-1D (AO-92) can be tracked NOW for your location showing map with azimuth and elevation plus other details from your city location.







IsCatalogInMostPopularTable: catalog: 43137, numindb: 2656
Update: records affected: 1



GetName: 43137 FOX-1D (AO-92)

Hit Count: updated at: Sat, 14 Mar 2026 03:11:34 GMT